Weather History for KSPG - January, 2014

Change the Weather History Date:

Sunday, January 26, 2014

  Actual Average Record
Temperature  
Mean Temperature 59 °F -  
Max Temperature 61 °F 68 °F 86 °F (1984)
Min Temperature 57 °F 53 °F 36 °F (1951)
Degree Days  
Heating Degree Days 6    
Growing Degree Days 9 (Base 50)    
Moisture  
Dew Point 58 °F    
Average Humidity 94    
Maximum Humidity 100    
Minimum Humidity 80    
Precipitation  
Precipitation 0.10 in - - ()
Sea Level Pressure  
Sea Level Pressure 30.01 in    
Wind  
Wind Speed 4 mph (NNE)    
Max Wind Speed 10 mph    
Max Gust Speed -    
Visibility 6 miles    
Events Rain    
Averages and records for this station are not official NWS values.
T = Trace of Precipitation, MM = Missing Value Source: NWS Daily Summary

Daily Weather History Graph

Daily Weather History Graph

Search for Another Location

Airport or City:

Trip Planner

Search our weather history database for the weather conditions in past years. The results will help you decide how hot, cold, wet, or windy it might be!

Date:

Astronomy

Jan. 26, 2014 Rise Set
Actual Time 7:19 AM EST 6:06 PM EST
Civil Twilight 6:55 AM EST 6:31 PM EST
Nautical Twilight 6:26 AM EST 6:59 PM EST
Astronomical Twilight 5:59 AM EST 7:27 PM EST
Moon 2:54 AM EST (1/26) 1:57 PM EST (1/26)
Length of Visible Light 11h 36m
Length of Day
10h 46m
Waning Crescent, 24% of the Moon is Illuminated
Jan 26
Waning Crescent
Jan 30
New
Feb 6
First Quarter
Feb 14
Full
Feb 22
Last Quarter

Hourly Weather History & Observations

Time (EST) Temp. Dew Point Humidity Pressure Visibility Wind Dir Wind Speed Gust Speed Precip Events Conditions
12:53 AM 57.9 °F 55.9 °F 93% 30.04 in 9.0 mi WSW 5.8 mph - N/A   Clear
1:53 AM 59.0 °F 57.0 °F 93% 30.02 in 9.0 mi Calm Calm - N/A   Mostly Cloudy
2:53 AM 60.1 °F 57.9 °F 93% 30.01 in 9.0 mi WSW 4.6 mph - N/A   Overcast
3:31 AM 60.1 °F 57.9 °F 93% 30.01 in 3.0 mi WSW 4.6 mph - 0.00 in Rain Light Rain
3:38 AM 60.1 °F 59.0 °F 96% 30.01 in 2.5 mi West 4.6 mph - 0.02 in Rain Rain
3:45 AM 60.1 °F 59.0 °F 96% 30.01 in 4.0 mi West 5.8 mph - 0.02 in Rain Light Rain
3:53 AM 60.1 °F 59.0 °F 96% 30.01 in 7.0 mi WNW 5.8 mph - 0.02 in Rain Light Rain
4:23 AM 61.0 °F 60.1 °F 97% 30.02 in 6.0 mi North - - 0.01 in Rain Light Rain
4:53 AM 61.0 °F 60.1 °F 97% 30.02 in 10.0 mi WNW 3.5 mph - 0.02 in   Unknown
5:00 AM 61.0 °F 59.0 °F 93% 30.02 in 10.0 mi Calm Calm - N/A   Overcast
5:43 AM 61.0 °F 59.0 °F 93% 30.02 in 10.0 mi North 10.4 mph - N/A   Overcast
5:53 AM 60.1 °F 57.9 °F 93% 30.03 in 10.0 mi North 8.1 mph - N/A   Overcast
6:41 AM 59.0 °F 55.9 °F 90% 30.04 in 10.0 mi North 6.9 mph - N/A   Overcast
6:53 AM 59.0 °F 55.9 °F 90% 30.04 in 10.0 mi NNE 8.1 mph - N/A   Overcast
7:53 AM 57.9 °F 55.0 °F 90% 30.05 in 10.0 mi NNE 5.8 mph - N/A   Overcast
8:41 AM 57.9 °F 54.0 °F 87% 30.06 in 10.0 mi NE 6.9 mph - 0.00 in   Overcast
8:53 AM 57.9 °F 54.0 °F 87% 30.06 in 10.0 mi ENE 6.9 mph - 0.00 in   Overcast
9:53 AM 59.0 °F 54.0 °F 83% 30.08 in 10.0 mi ENE 6.9 mph - N/A   Overcast
10:53 AM 59.0 °F 54.0 °F 83% 30.09 in 10.0 mi East 4.6 mph - N/A   Overcast
11:53 AM 60.1 °F 54.0 °F 80% 30.07 in 10.0 mi Calm Calm - N/A   Overcast
12:53 PM 59.0 °F 55.0 °F 87% 30.05 in 10.0 mi Calm Calm - N/A   Overcast
1:53 PM 61.0 °F 55.9 °F 83% 30.01 in 10.0 mi ESE 3.5 mph - N/A   Overcast
2:53 PM 61.0 °F 57.0 °F 87% 30.00 in 10.0 mi Calm Calm - N/A   Overcast
3:53 PM 61.0 °F 57.9 °F 90% 30.00 in 3.0 mi North 4.6 mph - 0.00 in Rain Light Rain
4:12 PM 61.0 °F 59.0 °F 93% 29.99 in 2.5 mi North 4.6 mph - 0.00 in Rain Light Rain
4:29 PM 61.0 °F 60.1 °F 97% 29.99 in 3.0 mi NE 3.5 mph - 0.01 in Rain Light Rain
4:50 PM 60.8 °F 59.0 °F 94% 29.99 in 3.0 mi East 4.6 mph - 0.01 in   Overcast
4:53 PM 60.1 °F 59.0 °F 96% 29.99 in 3.0 mi East 3.5 mph - 0.01 in   Overcast
5:00 PM 60.1 °F 59.0 °F 96% 29.99 in 4.0 mi ESE 3.5 mph - N/A   Overcast
5:32 PM 60.1 °F 59.0 °F 96% 29.98 in 2.5 mi East 3.5 mph - 0.01 in Rain Light Rain
5:41 PM 60.1 °F 59.0 °F 96% 29.98 in 4.0 mi Calm Calm - 0.01 in Rain Light Rain
5:53 PM 60.1 °F 59.0 °F 96% 29.99 in 4.0 mi North 3.5 mph - 0.01 in   Overcast
6:53 PM 61.0 °F 59.0 °F 93% 29.99 in 5.0 mi NNE 4.6 mph - N/A   Overcast
7:53 PM 61.0 °F 61.0 °F 100% 30.00 in 3.0 mi Calm Calm - 0.00 in Rain Light Rain
8:03 PM 61.0 °F 60.1 °F 97% 30.00 in 2.5 mi Calm Calm - 0.02 in Rain Rain
8:28 PM 60.1 °F 60.1 °F 100% 30.00 in 1.8 mi Calm Calm - 0.03 in Rain Light Rain
8:33 PM 60.1 °F 60.1 °F 100% 30.00 in 2.0 mi Calm Calm - 0.03 in Rain Light Rain
8:53 PM 60.1 °F 60.1 °F 100% 30.00 in 2.0 mi Calm Calm - 0.03 in   Overcast
9:35 PM 60.1 °F 60.1 °F 100% 30.01 in 2.5 mi Calm Calm - 0.00 in   Overcast
9:49 PM 60.8 °F 60.8 °F 100% 30.01 in 2.5 mi Calm Calm - 0.00 in   Overcast
9:53 PM 60.1 °F 60.1 °F 100% 30.01 in 2.5 mi Calm Calm - 0.00 in   Overcast
10:53 PM 60.1 °F 59.0 °F 96% 30.00 in 3.0 mi SE 5.8 mph - N/A   Overcast
11:04 PM 60.1 °F 59.0 °F 96% 30.00 in 2.5 mi Calm Calm - N/A   Overcast
11:31 PM 61.0 °F 60.1 °F 97% 30.00 in 3.0 mi SSW 3.5 mph - N/A   Overcast
11:49 PM 60.8 °F 60.8 °F 100% 29.99 in 2.5 mi Calm Calm - 0.01 in Rain Light Rain
11:53 PM 61.0 °F 60.1 °F 97% 29.99 in 3.0 mi Calm Calm - 0.01 in Rain Light Rain